星链-35846(STARLINK-35846)

导读

STARLINK-35848是美国太空探索技术公司SpaceX星链(Starlink)星座中的卫星,2025年11月6日发射入轨,属于星链低轨互联网星座组网的组成部分。它延续了星链卫星的设计,承担为全球范围提供高速卫星互联网接入的任务,推动星链星座完成全球覆盖部署进程。

Basic Information
目录编号:
66349
目录名称:
STARLINK-35848
国际标识:
2025-254B
轨道中心:
EARTH
卫星名称:
星链-35846
卫星全名:
星链-35846(STARLINK-35846)
卫星状态:
在轨 (已飞行302 天)
发射日期:
2025-11-06 UTC
国别 :
美国 (US)
星等 :
--
Orbit Information
数据来源 国际轨道数据 AOE轨道数据
星历时间 2026-09-02T08:02:33+0800
2天前
查看轨道信息
2026-09-01T02:00:00+0800
3天前
查看轨道信息
半长轴 6848.861km 6848.854km
偏心率 0.0001463 0.0001541
轨道倾角 53.158° 53.158°
近地点辐角 79.709° 61.922°
升交点赤经 132.528° 138.357°
平近点角 280.408° 231.895°
近地点 469.722km 469.661km
远地点 471.726km 471.773km
周期 94.013分钟 94.013分钟
每日圈数 15.317057 15.31708
Detailed Information
固有亮度:
5
最大亮度:
2.5
卫星平台:
Starlink V1.0
覆盖范围:
全球
运营商:
太空探索技术公司
运营商所在国:
美国
制造商(研发单位):
太空探索技术公司
制造商所在国:
美国
使用方式:
暂无
Satellite Introduction
Starlink 计划是 SpaceX 推出的全球卫星互联网项目,通过发射低轨道卫星,为全球尤其是偏远地区提供高速、低延迟的互联网服务。自 2019 年起,Starlink 已部署数千颗卫星,旨在缩小全球数字鸿沟,推动互联网普及。该项目还为军事、航空等行业提供通信支持,带来广泛经济效益。
2D Orbit Map
3D Orbit Map
Orbit Altitude Analysis Chart
Orbit Inclination Analysis Chart
Orbit Comprehensive Analysis Chart
View Comprehensive Chart
Conjunction Data List
Event ID Objects TCA Miss Dist (km) Collision Risk Probability Collision Risk Index (CRI) Action
CDM_260904-182706-634906-877622
2026-09-04T
18:27:42+0000
2.706 km
极远距离
1.530015E-6 低风险 0.39
CDM_260905-021806-634906-971821
2026-09-05T
02:18:42+0000
2.835 km
极远距离
1.43257E-6 低风险 0.38
CDM_260831-000006-634906-972222
2026-08-31T
00:00:14+0000
2.838 km
极远距离
1.38805E-6 低风险 0.38
CDM_260903-232006-634906-770921
2026-09-03T
23:20:13+0000
2.805 km
极远距离
1.38078E-6 低风险 0.38
CDM_260827-190906-634906-815621
2026-08-27T
19:09:38+0000
2.918 km
极远距离
1.235614E-6 低风险 0.37
CDM_260827-214005-367706-634921
2026-08-27T
21:40:57+0000
2.956 km
极远距离
9.163934E-7 极低风险 0.34